This is the latest recevied weather packets stored in our database for station/object PE1BMM-13. If no packets are shown the sender has not sent any weather packets the latest 10 day(s).
| Time | Temp. | Humidity | Pressure | Rain* | Wind** | Luminosity | Snow |
|---|---|---|---|---|---|---|---|
| 1777638111 | 22.22° C | 35% | 1023.9 hPa | 0 mm | - | - | - |
| 1777637810 | 22.22° C | 37% | 1023.9 hPa | 0 mm | - | - | - |
| 1777637510 | 21.67° C | 37% | 1024 hPa | 0 mm | - | - | - |
| 1777637210 | 21.67° C | 37% | 1024.2 hPa | 0 mm | - | - | - |
| 1777636909 | 21.67° C | 38% | 1024.1 hPa | 0 mm | - | - | - |
| 1777636611 | 21.11° C | 37% | 1024.1 hPa | 0 mm | - | - | - |
| 1777636309 | 21.11° C | 38% | 1024.2 hPa | 0 mm | - | - | - |
| 1777636009 | 20.56° C | 39% | 1024.1 hPa | 0 mm | - | - | - |
| 1777635711 | 20.56° C | 38% | 1024.2 hPa | 0 mm | - | - | - |
| 1777635411 | 20.56° C | 39% | 1024.2 hPa | 0 mm | - | - | - |
| 1777635110 | 20.56° C | 40% | 1024.2 hPa | 0 mm | - | - | - |
| 1777634803 | 20.56° C | 40% | 1024.2 hPa | 0 mm | - | - | - |
| 1777634496 | 20.56° C | 38% | 1024.3 hPa | 0 mm | - | - | - |
| 1777634191 | 20.56° C | 38% | 1024.3 hPa | 0 mm | - | - | - |
| 1777633884 | 20.56° C | 39% | 1024.4 hPa | 0 mm | - | - | - |
| 1777633578 | 20° C | 38% | 1024.4 hPa | 0 mm | - | - | - |
| 1777633272 | 20° C | 39% | 1024.5 hPa | 0 mm | - | - | - |
| 1777632967 | 20° C | 42% | 1024.5 hPa | 0 mm | - | - | - |
| 1777632660 | 20° C | 41% | 1024.6 hPa | 0 mm | - | - | - |
| 1777632354 | 20° C | 40% | 1024.7 hPa | 0 mm | - | - | - |
| 1777632048 | 19.44° C | 40% | 1024.8 hPa | 0 mm | - | - | - |
| 1777631742 | 19.44° C | 39% | 1024.9 hPa | 0 mm | - | - | - |
| 1777631437 | 19.44° C | 41% | 1024.9 hPa | 0 mm | - | - | - |
| 1777631131 | 19.44° C | 40% | 1025 hPa | 0 mm | - | - | - |
| 1777630824 | 19.44° C | 41% | 1025.1 hPa | 0 mm | - | - | - |
* Rain latest hour (hover to see other rain measurements)
** Current wind speed in m/s (hover to see current wind gust speed)